| time (UTC) | temp F | wind direction | speed knots | gust knots | rain 1hr in | rain 24hr in | rain mn in | humidity % | barometer mb |
| 20260504194512 | 74 | 182 | 2.6 | 10.4 | 0.00 | 0.00 | 0.00 | 37 | 1006.3 |
| 20260504194503 | 74 | 217 | 3.5 | 11.3 | 0.00 | 0.00 | 0.00 | 37 | 1006.2 |
| 20260504193603 | 74 | 226 | 2.6 | 10.4 | 0.00 | 0.00 | 0.00 | 34 | 1006.3 |
| 20260504193004 | 74 | 240 | 1.7 | 9.6 | 0.00 | 0.00 | 0.00 | 36 | 1006.4 |
| 20260504192703 | 74 | 217 | 3.5 | 9.6 | 0.00 | 0.00 | 0.00 | 38 | 1006.4 |
| 20260504191803 | 74 | 228 | 2.6 | 7.8 | 0.00 | 0.00 | 0.00 | 36 | 1006.5 |
| 20260504191509 | 74 | 201 | 2.6 | 7.0 | 0.00 | 0.00 | 0.00 | 37 | 1006.6 |
| 20260504190903 | 74 | 205 | 2.6 | 7.0 | 0.00 | 0.00 | 0.00 | 37 | 1006.6 |
| 20260504190008 | 74 | 154 | 3.5 | 7.0 | 0.00 | 0.00 | 0.00 | 36 | 1006.9 |
| 20260504190003 | 74 | 215 | 2.6 | 7.8 | 0.00 | 0.00 | 0.00 | 36 | 1006.8 |
| 20260504185403 | 74 | 220 | 1.7 | 5.2 | 0.00 | 0.00 | 0.00 | 40 | 1006.7 |
| 20260504184513 | 73 | 243 | 1.7 | 7.0 | 0.00 | 0.00 | 0.00 | 35 | 1007.1 |
| 20260504184503 | 73 | 244 | 3.5 | 8.7 | 0.00 | 0.00 | 0.00 | 35 | 1007.0 |
| 20260504183818 | 73 | 215 | 3.5 | 8.7 | 0.00 | 0.00 | 0.00 | 36 | 1007.0 |
| 20260504183012 | 72 | 150 | 3.5 | 10.4 | 0.00 | 0.00 | 0.00 | 38 | 1007.2 |
| 20260504182703 | 74 | 206 | 3.5 | 10.4 | 0.00 | 0.00 | 0.00 | 36 | 1007.2 |
| 20260504181803 | 73 | 231 | 2.6 | 8.7 | 0.00 | 0.00 | 0.00 | 41 | 1007.3 |
| 20260504181509 | 72 | 206 | 2.6 | 8.7 | 0.00 | 0.00 | 0.00 | 37 | 1007.5 |
| 20260504180903 | 72 | 219 | 3.5 | 8.7 | 0.00 | 0.00 | 0.00 | 36 | 1007.5 |
| 20260504180013 | 72 | 189 | 3.5 | 7.8 | 0.00 | 0.00 | 0.00 | 37 | 1007.7 |
| 20260504180003 | 72 | 227 | 3.5 | 13.9 | 0.00 | 0.00 | 0.00 | 38 | 1007.6 |
| 20260504175403 | 72 | 231 | 3.5 | 13.9 | 0.00 | 0.00 | 0.00 | 40 | 1007.6 |
| 20260504174503 | 71 | 205 | 4.3 | 7.8 | 0.00 | 0.00 | 0.00 | 37 | 1007.8 |
| 20260504173603 | 72 | 226 | 2.6 | 9.6 | 0.00 | 0.00 | 0.00 | 38 | 1007.9 |
| 20260504173007 | 71 | 206 | 2.6 | 8.7 | 0.00 | 0.00 | 0.00 | 40 | 1008.1 |
| 20260504172703 | 71 | 231 | 3.5 | 9.6 | 0.00 | 0.00 | 0.00 | 40 | 1008.0 |
| 20260504171803 | 71 | 227 | 2.6 | 6.1 | 0.00 | 0.00 | 0.00 | 39 | 1007.9 |
| 20260504171509 | 70 | 201 | 2.6 | 9.6 | 0.00 | 0.00 | 0.00 | 39 | 1008.1 |
| 20260504170903 | 70 | 238 | 4.3 | 11.3 | 0.00 | 0.00 | 0.00 | 38 | 1008.1 |
| 20260504160107 | 68 | 184 | 2.6 | 10.4 | 0.00 | 0.00 | 0.00 | 40 | 1009.4 |
| 20260504150903 | 68 | 215 | 2.6 | 7.0 | 0.00 | 0.00 | 0.00 | 46 | 1009.5 |
| 20260504141117 | 65 | 237 | 1.7 | 7.0 | 0.00 | 0.00 | 0.00 | 52 | 1009.8 |
| 20260504081520 | 40 | 222 | 0.0 | 0.9 | 0.00 | 0.00 | 0.00 | 75 | 1010.8 |
| 20260504081116 | 41 | 223 | 0.0 | 0.9 | 0.00 | 0.00 | 0.00 | 75 | 1010.8 |
| 20260504080218 | 41 | 0 | 0.0 | 0.0 | 0.00 | 0.00 | 0.00 | 73 | 1010.6 |
| 20260504070217 | 45 | 0 | 0.0 | 0.0 | 0.00 | 0.00 | 0.00 | 67 | 1010.7 |
| 20260504050014 | 47 | 219 | 0.0 | 4.3 | 0.00 | 0.00 | 0.00 | 62 | 1010.5 |
| 20260504050003 | 48 | 223 | 0.0 | 4.3 | 0.00 | 0.00 | 0.00 | 62 | 1010.4 |
| 20260504045403 | 47 | 215 | 0.0 | 2.6 | 0.00 | 0.00 | 0.00 | 62 | 1010.2 |
| 20260504044516 | 47 | 210 | 0.0 | 0.9 | 0.00 | 0.00 | 0.00 | 61 | 1010.4 |
| 20260504044504 | 48 | 221 | 0.0 | 1.7 | 0.00 | 0.00 | 0.00 | 61 | 1010.2 |
| 20260504043817 | 48 | 206 | 0.0 | 1.7 | 0.00 | 0.00 | 0.00 | 62 | 1010.1 |
| 20260504043004 | 48 | 205 | 0.0 | 3.5 | 0.00 | 0.00 | 0.00 | 60 | 1010.2 |
| 20260504042703 | 48 | 213 | 0.0 | 3.5 | 0.00 | 0.00 | 0.00 | 60 | 1010.1 |
| 20260504041803 | 48 | 235 | 0.0 | 3.5 | 0.00 | 0.00 | 0.00 | 61 | 1010.0 |
| 20260504041506 | 47 | 247 | 0.0 | 3.5 | 0.00 | 0.00 | 0.00 | 61 | 1010.0 |
| 20260504040903 | 47 | 214 | 0.0 | 2.6 | 0.00 | 0.00 | 0.00 | 63 | 1009.8 |
| 20260504040007 | 45 | 209 | 0.0 | 2.6 | 0.00 | 0.00 | 0.00 | 66 | 1010.0 |
| 20260504040005 | 46 | 217 | 0.0 | 2.6 | 0.00 | 0.00 | 0.00 | 66 | 1009.8 |
| 20260504035403 | 45 | 181 | 0.0 | 3.5 | 0.00 | 0.00 | 0.00 | 69 | 1009.8 |
| 20260504034511 | 43 | 181 | 0.0 | 1.7 | 0.00 | 0.00 | 0.00 | 71 | 1009.9 |
| 20260504034503 | 44 | 186 | 0.0 | 1.7 | 0.00 | 0.00 | 0.00 | 71 | 1009.8 |
| 20260504033603 | 43 | 196 | 0.0 | 0.9 | 0.00 | 0.00 | 0.00 | 72 | 1009.7 |
| 20260504033004 | 41 | 179 | 0.0 | 0.9 | 0.00 | 0.00 | 0.00 | 75 | 1009.8 |
| 20260504032703 | 42 | 0 | 0.0 | 0.0 | 0.00 | 0.00 | 0.00 | 76 | 1009.7 |
| 20260504032017 | 41 | 0 | 0.0 | 0.0 | 0.00 | 0.00 | 0.00 | 74 | 1009.7 |
| 20260504031507 | 41 | 179 | 0.0 | 0.0 | 0.00 | 0.00 | 0.00 | 74 | 1009.8 |
| 20260504030903 | 42 | 0 | 0.0 | 0.0 | 0.00 | 0.00 | 0.00 | 72 | 1009.6 |
| 20260504030015 | 42 | 179 | 0.0 | 0.0 | 0.00 | 0.00 | 0.00 | 70 | 1009.7 |
| 20260504030003 | 42 | 0 | 0.0 | 0.0 | 0.00 | 0.00 | 0.00 | 70 | 1009.6 |
| 20260504025403 | 43 | 0 | 0.0 | 0.0 | 0.00 | 0.00 | 0.00 | 68 | 1009.6 |
| 20260504024717 | 44 | 0 | 0.0 | 0.0 | 0.00 | 0.00 | 0.00 | 67 | 1009.6 |
| 20260504024511 | 44 | 179 | 0.0 | 0.0 | 0.00 | 0.00 | 0.00 | 67 | 1009.7 |
| 20260504023603 | 44 | 0 | 0.0 | 0.0 | 0.00 | 0.00 | 0.00 | 68 | 1009.6 |
| 20260504023003 | 44 | 179 | 0.0 | 0.9 | 0.00 | 0.00 | 0.00 | 67 | 1009.8 |
| 20260504022703 | 45 | 0 | 0.0 | 0.0 | 0.00 | 0.00 | 0.00 | 65 | 1009.7 |
| 20260504022017 | 46 | 0 | 0.0 | 0.0 | 0.00 | 0.00 | 0.00 | 63 | 1009.6 |
| 20260504021506 | 45 | 179 | 0.0 | 0.0 | 0.00 | 0.00 | 0.00 | 64 | 1009.7 |
| 20260504020903 | 46 | 0 | 0.0 | 0.0 | 0.00 | 0.00 | 0.00 | 63 | 1009.5 |
| 20260504020012 | 46 | 180 | 0.0 | 0.0 | 0.00 | 0.00 | 0.00 | 64 | 1009.7 |
| 20260504020003 | 46 | 0 | 0.0 | 0.0 | 0.00 | 0.00 | 0.00 | 64 | 1009.6 |
| 20260504015403 | 47 | 0 | 0.0 | 0.0 | 0.00 | 0.00 | 0.00 | 60 | 1009.6 |
| 20260504014611 | 47 | 179 | 0.0 | 0.9 | 0.00 | 0.00 | 0.00 | 61 | 1009.7 |
| 20260504014503 | 47 | 0 | 0.0 | 0.0 | 0.00 | 0.00 | 0.00 | 60 | 1009.5 |
| 20260504013603 | 47 | 0 | 0.0 | 0.0 | 0.00 | 0.00 | 0.00 | 60 | 1009.5 |
| 20260504013027 | 47 | 179 | 0.0 | 0.0 | 0.00 | 0.00 | 0.00 | 60 | 1009.5 |
| 20260504012703 | 48 | 0 | 0.0 | 0.0 | 0.00 | 0.00 | 0.00 | 60 | 1009.4 |
| 20260504011803 | 48 | 0 | 0.0 | 0.0 | 0.00 | 0.00 | 0.00 | 58 | 1009.2 |
| 20260504011511 | 48 | 229 | 0.0 | 0.0 | 0.00 | 0.00 | 0.00 | 59 | 1009.2 |
| 20260504011118 | 49 | 0 | 0.0 | 0.0 | 0.00 | 0.00 | 0.00 | 57 | 1009.1 |
| 20260504010003 | 50 | 0 | 0.0 | 0.0 | 0.00 | 0.00 | 0.00 | 53 | 1008.9 |
| 20260504005617 | 50 | 0 | 0.0 | 0.0 | 0.00 | 0.00 | 0.00 | 53 | 1008.9 |
| 20260504004508 | 51 | 230 | 0.0 | 0.9 | 0.00 | 0.00 | 0.00 | 50 | 1008.9 |
| 20260504004503 | 52 | 0 | 0.0 | 0.0 | 0.00 | 0.00 | 0.00 | 50 | 1008.8 |
| 20260504003603 | 52 | 199 | 0.0 | 0.9 | 0.00 | 0.00 | 0.00 | 47 | 1008.7 |
| 20260504003012 | 52 | 198 | 0.0 | 0.9 | 0.00 | 0.00 | 0.00 | 45 | 1008.7 |
| 20260504002917 | 53 | 216 | 0.0 | 0.9 | 0.00 | 0.00 | 0.00 | 45 | 1008.5 |
| 20260504001803 | 53 | 0 | 0.0 | 0.0 | 0.00 | 0.00 | 0.00 | 46 | 1008.5 |
| 20260504001504 | 53 | 206 | 0.0 | 0.0 | 0.00 | 0.00 | 0.00 | 45 | 1008.5 |
| 20260504000903 | 55 | 175 | 0.0 | 1.7 | 0.00 | 0.00 | 0.00 | 44 | 1008.4 |
| 20260504000007 | 55 | 210 | 0.0 | 0.9 | 0.00 | 0.00 | 0.00 | 40 | 1008.4 |
| 20260504000003 | 55 | 0 | 0.0 | 0.0 | 0.00 | 0.00 | 0.00 | 40 | 1008.2 |
| 20260503235403 | 56 | 227 | 0.0 | 2.6 | 0.00 | 0.00 | 0.00 | 39 | 1008.2 |
| 20260503234511 | 56 | 154 | 0.0 | 2.6 | 0.00 | 0.00 | 0.00 | 38 | 1008.2 |
| 20260503234503 | 57 | 223 | 0.0 | 2.6 | 0.00 | 0.00 | 0.00 | 38 | 1008.1 |
| 20260503233603 | 57 | 270 | 0.0 | 2.6 | 0.00 | 0.00 | 0.00 | 37 | 1008.1 |
| 20260503233009 | 57 | 23 | 0.0 | 1.7 | 0.00 | 0.00 | 0.00 | 37 | 1008.1 |
| 20260503232703 | 58 | 265 | 0.0 | 3.5 | 0.00 | 0.00 | 0.00 | 36 | 1008.0 |
| 20260503231803 | 58 | 301 | 0.0 | 4.3 | 0.00 | 0.00 | 0.00 | 36 | 1007.9 |
| 20260503231508 | 58 | 207 | 0.0 | 4.3 | 0.00 | 0.00 | 0.00 | 36 | 1008.1 |
| 20260503230903 | 59 | 340 | 0.0 | 0.9 | 0.00 | 0.00 | 0.00 | 36 | 1007.9 |
| 20260503230014 | 59 | 333 | 0.0 | 3.5 | 0.00 | 0.00 | 0.00 | 34 | 1007.9 |
| 20260503230003 | 59 | 289 | 0.9 | 4.3 | 0.00 | 0.00 | 0.00 | 34 | 1007.8 |
| 20260503225618 | 59 | 285 | 0.9 | 3.5 | 0.00 | 0.00 | 0.00 | 34 | 1007.8 |
| 20260503224506 | 59 | 14 | 0.0 | 4.3 | 0.00 | 0.00 | 0.00 | 33 | 1007.9 |
| 20260503224503 | 59 | 315 | 0.9 | 4.3 | 0.00 | 0.00 | 0.00 | 33 | 1007.8 |
| 20260503223603 | 60 | 282 | 0.9 | 6.1 | 0.00 | 0.00 | 0.00 | 33 | 1007.8 |
| 20260503223009 | 59 | 327 | 1.7 | 5.2 | 0.00 | 0.00 | 0.00 | 32 | 1007.9 |
| 20260503222918 | 60 | 290 | 0.9 | 6.1 | 0.00 | 0.00 | 0.00 | 32 | 1007.7 |
| 20260503221803 | 61 | 309 | 1.7 | 5.2 | 0.00 | 0.00 | 0.00 | 33 | 1007.6 |
| 20260503221605 | 60 | 254 | 0.0 | 6.1 | 0.00 | 0.00 | 0.00 | 32 | 1007.7 |
| 20260503220903 | 61 | 302 | 2.6 | 7.8 | 0.00 | 0.00 | 0.00 | 30 | 1007.7 |
| 20260503220218 | 61 | 301 | 1.7 | 7.8 | 0.00 | 0.00 | 0.00 | 32 | 1007.7 |
| 20260503220005 | 61 | 266 | 1.7 | 7.8 | 0.00 | 0.00 | 0.00 | 31 | 1007.8 |
| 20260503215403 | 62 | 270 | 1.7 | 5.2 | 0.00 | 0.00 | 0.00 | 32 | 1007.8 |
| 20260503214509 | 61 | 312 | 0.0 | 5.2 | 0.00 | 0.00 | 0.00 | 32 | 1007.8 |
| 20260503214503 | 62 | 327 | 0.9 | 5.2 | 0.00 | 0.00 | 0.00 | 32 | 1007.7 |
| 20260503213603 | 62 | 332 | 0.9 | 6.1 | 0.00 | 0.00 | 0.00 | 31 | 1007.7 |
| 20260503213012 | 61 | 61 | 0.9 | 5.2 | 0.00 | 0.00 | 0.00 | 33 | 1007.9 |
| 20260503212703 | 61 | 334 | 1.7 | 6.1 | 0.00 | 0.00 | 0.00 | 32 | 1007.7 |
| 20260503212017 | 61 | 319 | 1.7 | 5.2 | 0.00 | 0.00 | 0.00 | 33 | 1007.6 |
| 20260503211506 | 61 | 289 | 0.9 | 5.2 | 0.00 | 0.00 | 0.00 | 33 | 1007.8 |
| 20260503210903 | 61 | 284 | 2.6 | 8.7 | 0.00 | 0.00 | 0.00 | 32 | 1007.8 |
| 20260503210009 | 61 | 212 | 0.9 | 7.0 | 0.00 | 0.00 | 0.00 | 32 | 1008.0 |
| 20260503210003 | 61 | 302 | 1.7 | 7.0 | 0.00 | 0.00 | 0.00 | 32 | 1007.8 |
| 20260503205403 | 61 | 293 | 2.6 | 10.4 | 0.00 | 0.00 | 0.00 | 32 | 1007.9 |
| 20260503204602 | 61 | 280 | 3.5 | 10.4 | 0.00 | 0.00 | 0.00 | 31 | 1008.0 |
| 20260503204503 | 61 | 289 | 3.5 | 10.4 | 0.00 | 0.00 | 0.00 | 31 | 1007.9 |
| 20260503203818 | 61 | 296 | 2.6 | 6.1 | 0.00 | 0.00 | 0.00 | 32 | 1007.9 |
| 20260503203018 | 60 | 244 | 2.6 | 7.8 | 0.00 | 0.00 | 0.00 | 32 | 1007.9 |
| 20260503202703 | 61 | 319 | 2.6 | 7.8 | 0.00 | 0.00 | 0.00 | 32 | 1007.8 |
| 20260503201803 | 61 | 309 | 2.6 | 7.8 | 0.00 | 0.00 | 0.00 | 33 | 1007.7 |
| 20260503201511 | 61 | 31 | 3.5 | 7.8 | 0.00 | 0.00 | 0.00 | 32 | 1008.0 |
| 20260503200903 | 61 | 315 | 2.6 | 8.7 | 0.00 | 0.00 | 0.00 | 32 | 1007.9 |
| 20260503200003 | 60 | 352 | 3.5 | 7.8 | 0.00 | 0.00 | 0.00 | 34 | 1008.1 |
| 20260503195403 | 61 | 287 | 1.7 | 7.8 | 0.00 | 0.00 | 0.00 | 33 | 1007.9 |